Precipitable_Water
0.45 0.49 0.55 0.56 0.32 0.42 0.41 0.46 0.52 0.46 0.43 0.42 0.34 0.29 0.30 0.43 0.36 0.31 0.68 0.63 0.65 0.65 0.71 0.74 0.89 0.92 0.87 0.85 0.90 0.78 0.74 0.87 0.81 0.78 0.80 0.81 0.75 0.75 0.75 0.82 0.84 0.82 0.79 0.79 0.75 0.68 0.77 0.82 0.81
0.52 0.51 0.45 0.50 0.29 0.22 0.37 0.52 0.45 0.48 0.50 0.43 0.33 0.35 0.31 0.32 0.59 0.60 0.53 0.63 0.64 0.60 0.68 0.80 0.96 0.86 0.79 0.85 0.83 0.83 0.83 0.76 0.77 0.78 0.73 0.74 0.78 0.76 0.73 0.77 0.79 0.77 0.79 0.73 0.73 0.69 0.73 0.80 0.77
0.50 0.51 0.32 0.33 0.26 0.26 0.37 0.47 0.48 0.51 0.49 0.40 0.27 0.41 0.36 0.36 0.54 0.54 0.58 0.63 0.65 0.56 0.68 0.79 0.84 0.78 0.79 0.78 0.74 0.74 0.79 0.79 0.74 0.73 0.74 0.74 0.71 0.74 0.74 0.71 0.73 0.69 0.70 0.70 0.69 0.67 0.68 0.70 0.72
0.44 0.37 0.34 0.22 0.18 0.32 0.42 0.47 0.48 0.46 0.43 0.36 0.32 0.28 0.41 0.54 0.46 0.49 0.60 0.64 0.60 0.56 0.68 0.79 0.79 0.78 0.77 0.79 0.77 0.78 0.75 0.74 0.71 0.71 0.71 0.72 0.72 0.68 0.66 0.65 0.66 0.66 0.67 0.65 0.64 0.64 0.63 0.63 0.68
0.45 0.38 0.21 0.19 0.19 0.39 0.42 0.55 0.52 0.45 0.42 0.35 0.33 0.29 0.32 0.53 0.59 0.58 0.58 0.61 0.54 0.55 0.66 0.77 0.78 0.76 0.79 0.77 0.81 0.79 0.74 0.72 0.73 0.71 0.69 0.66 0.61 0.60 0.59 0.56 0.55 0.53 0.54 0.55 0.56 0.56 0.58 0.59 0.60
0.33 0.39 0.20 0.15 0.22 0.38 0.40 0.48 0.53 0.46 0.42 0.34 0.33 0.33 0.31 0.53 0.54 0.58 0.59 0.57 0.59 0.56 0.66 0.71 0.76 0.77 0.76 0.77 0.77 0.73 0.71 0.69 0.65 0.64 0.62 0.56 0.51 0.48 0.47 0.48 0.49 0.48 0.49 0.51 0.52 0.48 0.46 0.46 0.51
0.34 0.30 0.21 0.23 0.26 0.37 0.42 0.53 0.49 0.44 0.43 0.35 0.43 0.34 0.36 0.46 0.55 0.58 0.57 0.60 0.61 0.64 0.68 0.67 0.75 0.80 0.74 0.73 0.70 0.72 0.68 0.65 0.60 0.60 0.59 0.56 0.47 0.47 0.44 0.43 0.45 0.48 0.48 0.48 0.48 0.47 0.40 0.39 0.39
0.48 0.38 0.25 0.30 0.31 0.35 0.54 0.54 0.56 0.51 0.46 0.46 0.46 0.35 0.31 0.44 0.55 0.57 0.60 0.59 0.61 0.63 0.66 0.66 0.67 0.67 0.72 0.71 0.70 0.68 0.67 0.62 0.57 0.55 0.52 0.48 0.43 0.41 0.42 0.42 0.42 0.41 0.41 0.41 0.43 0.43 0.36 0.31 0.31
0.58 0.35 0.28 0.37 0.37 0.41 0.57 0.53 0.57 0.57 0.49 0.48 0.46 0.51 0.50 0.53 0.53 0.50 0.52 0.56 0.58 0.60 0.61 0.64 0.60 0.62 0.64 0.67 0.70 0.67 0.67 0.61 0.54 0.49 0.44 0.42 0.38 0.38 0.40 0.40 0.40 0.40 0.40 0.40 0.38 0.36 0.37 0.39 0.39
0.44 0.36 0.40 0.50 0.51 0.46 0.56 0.55 0.54 0.51 0.48 0.47 0.48 0.58 0.63 0.60 0.47 0.40 0.41 0.43 0.49 0.52 0.57 0.59 0.59 0.57 0.60 0.63 0.63 0.63 0.62 0.58 0.51 0.44 0.38 0.34 0.39 0.39 0.40 0.41 0.39 0.37 0.40 0.39 0.39 0.40 0.41 0.42 0.40
0.38 0.36 0.50 0.51 0.48 0.54 0.52 0.57 0.62 0.52 0.47 0.49 0.45 0.53 0.62 0.60 0.49 0.40 0.38 0.41 0.42 0.50 0.55 0.58 0.61 0.59 0.55 0.54 0.58 0.58 0.59 0.57 0.50 0.42 0.36 0.42 0.42 0.42 0.42 0.40 0.39 0.38 0.42 0.39 0.42 0.42 0.42 0.40 0.40
0.22 0.32 0.40 0.42 0.44 0.50 0.48 0.55 0.53 0.53 0.52 0.58 0.54 0.59 0.61 0.62 0.53 0.47 0.41 0.39 0.42 0.47 0.51 0.56 0.61 0.61 0.61 0.54 0.53 0.53 0.49 0.51 0.47 0.43 0.45 0.46 0.45 0.43 0.40 0.37 0.38 0.39 0.42 0.42 0.42 0.42 0.42 0.42 0.42
0.22 0.23 0.25 0.34 0.39 0.41 0.46 0.44 0.48 0.48 0.56 0.58 0.56 0.59 0.59 0.60 0.60 0.55 0.53 0.50 0.46 0.43 0.47 0.53 0.58 0.59 0.60 0.58 0.58 0.58 0.55 0.47 0.45 0.47 0.49 0.49 0.46 0.40 0.41 0.41 0.42 0.41 0.43 0.42 0.42 0.43 0.42 0.43 0.44
0.22 0.25 0.24 0.26 0.27 0.29 0.27 0.31 0.35 0.37 0.41 0.44 0.49 0.54 0.57 0.58 0.60 0.59 0.56 0.54 0.51 0.47 0.44 0.52 0.55 0.58 0.60 0.57 0.58 0.57 0.58 0.51 0.51 0.50 0.50 0.50 0.47 0.42 0.42 0.43 0.42 0.42 0.42 0.43 0.43 0.44 0.44 0.44 0.45
0.22 0.23 0.27 0.29 0.29 0.27 0.29 0.24 0.23 0.27 0.33 0.33 0.38 0.47 0.52 0.54 0.60 0.58 0.58 0.54 0.54 0.52 0.48 0.45 0.52 0.57 0.56 0.56 0.58 0.58 0.55 0.52 0.50 0.48 0.49 0.47 0.46 0.45 0.43 0.45 0.45 0.44 0.44 0.44 0.45 0.45 0.44 0.44 0.48
0.20 0.22 0.19 0.25 0.29 0.29 0.27 0.17 0.23 0.26 0.26 0.28 0.30 0.36 0.46 0.52 0.55 0.56 0.57 0.56 0.56 0.55 0.51 0.50 0.51 0.54 0.53 0.54 0.56 0.57 0.52 0.50 0.50 0.49 0.48 0.45 0.44 0.42 0.44 0.47 0.48 0.48 0.47 0.46 0.45 0.44 0.45 0.48 0.50
0.17 0.12 0.14 0.17 0.26 0.25 0.24 0.19 0.23 0.26 0.26 0.26 0.28 0.29 0.35 0.46 0.54 0.56 0.56 0.57 0.57 0.55 0.54 0.52 0.53 0.50 0.52 0.53 0.54 0.53 0.51 0.50 0.49 0.49 0.48 0.46 0.46 0.42 0.45 0.49 0.50 0.50 0.48 0.46 0.46 0.46 0.48 0.48 0.51
0.11 0.10 0.10 0.11 0.19 0.23 0.22 0.20 0.23 0.24 0.22 0.22 0.24 0.26 0.30 0.35 0.43 0.51 0.53 0.56 0.57 0.55 0.54 0.54 0.54 0.54 0.52 0.53 0.53 0.51 0.50 0.49 0.50 0.49 0.48 0.48 0.47 0.46 0.45 0.49 0.50 0.50 0.49 0.48 0.48 0.47 0.51 0.51 0.52
0.15 0.11 0.09 0.11 0.20 0.19 0.18 0.19 0.24 0.26 0.25 0.23 0.22 0.21 0.24 0.27 0.32 0.40 0.46 0.52 0.54 0.53 0.52 0.52 0.53 0.55 0.53 0.50 0.48 0.45 0.42 0.46 0.48 0.50 0.51 0.50 0.50 0.48 0.47 0.48 0.52 0.53 0.50 0.50 0.52 0.52 0.51 0.51 0.56
0.18 0.14 0.11 0.13 0.17 0.15 0.19 0.21 0.28 0.30 0.29 0.28 0.25 0.22 0.23 0.27 0.30 0.30 0.38 0.46 0.51 0.49 0.50 0.52 0.52 0.54 0.53 0.51 0.50 0.49 0.46 0.47 0.50 0.52 0.51 0.51 0.50 0.50 0.50 0.51 0.52 0.53 0.52 0.53 0.54 0.54 0.52 0.54 0.57
0.15 0.15 0.15 0.15 0.16 0.17 0.19 0.18 0.23 0.27 0.29 0.30 0.29 0.28 0.28 0.29 0.30 0.31 0.31 0.38 0.48 0.48 0.48 0.49 0.50 0.52 0.53 0.53 0.53 0.52 0.53 0.51 0.47 0.48 0.48 0.50 0.52 0.51 0.52 0.54 0.56 0.55 0.54 0.52 0.54 0.55 0.53 0.50 0.56
0.16 0.22 0.20 0.19 0.15 0.08 0.17 0.11 0.18 0.23 0.24 0.26 0.28 0.29 0.31 0.32 0.33 0.33 0.34 0.36 0.45 0.47 0.51 0.51 0.52 0.52 0.54 0.55 0.50 0.47 0.42 0.39 0.42 0.44 0.48 0.50 0.54 0.52 0.54 0.55 0.57 0.58 0.56 0.54 0.55 0.58 0.57 0.57 0.52
0.19 0.24 0.21 0.19 0.16 0.16 0.15 0.12 0.15 0.23 0.21 0.24 0.27 0.29 0.31 0.35 0.36 0.35 0.35 0.37 0.43 0.50 0.48 0.51 0.52 0.53 0.54 0.54 0.53 0.48 0.45 0.46 0.47 0.47 0.47 0.50 0.53 0.55 0.55 0.56 0.56 0.58 0.58 0.57 0.56 0.57 0.58 0.59 0.56
0.24 0.22 0.24 0.23 0.19 0.14 0.16 0.14 0.16 0.19 0.22 0.24 0.27 0.30 0.32 0.33 0.36 0.38 0.40 0.40 0.41 0.45 0.49 0.50 0.51 0.51 0.53 0.54 0.54 0.51 0.47 0.46 0.46 0.47 0.46 0.47 0.50 0.54 0.56 0.57 0.56 0.57 0.58 0.58 0.57 0.57 0.58 0.59 0.60
0.24 0.19 0.15 0.15 0.16 0.16 0.21 0.16 0.18 0.25 0.28 0.27 0.26 0.29 0.32 0.35 0.35 0.36 0.38 0.39 0.40 0.39 0.44 0.49 0.52 0.52 0.54 0.54 0.54 0.53 0.51 0.50 0.48 0.48 0.48 0.48 0.48 0.50 0.51 0.55 0.55 0.55 0.57 0.58 0.59 0.57 0.57 0.59 0.59
0.21 0.20 0.15 0.11 0.13 0.16 0.22 0.17 0.22 0.32 0.35 0.36 0.36 0.35 0.34 0.35 0.37 0.37 0.38 0.40 0.40 0.39 0.41 0.49 0.52 0.54 0.57 0.58 0.56 0.57 0.57 0.54 0.53 0.53 0.52 0.51 0.51 0.51 0.54 0.55 0.57 0.57 0.58 0.58 0.58 0.58 0.57 0.58 0.59
0.22 0.19 0.24 0.17 0.18 0.15 0.18 0.23 0.31 0.35 0.36 0.37 0.38 0.38 0.37 0.37 0.38 0.39 0.40 0.40 0.41 0.42 0.41 0.43 0.48 0.53 0.59 0.60 0.61 0.61 0.60 0.58 0.55 0.55 0.56 0.54 0.56 0.55 0.56 0.56 0.56 0.57 0.58 0.59 0.59 0.57 0.56 0.57 0.57
0.25 0.27 0.20 0.20 0.13 0.13 0.18 0.21 0.23 0.30 0.33 0.38 0.38 0.37 0.38 0.39 0.39 0.39 0.39 0.40 0.42 0.43 0.44 0.46 0.46 0.46 0.48 0.50 0.53 0.58 0.58 0.58 0.58 0.58 0.55 0.55 0.55 0.57 0.57 0.56 0.57 0.57 0.58 0.59 0.59 0.57 0.57 0.56 0.56
0.25 0.22 0.22 0.22 0.22 0.17 0.17 0.22 0.35 0.35 0.38 0.38 0.40 0.42 0.41 0.41 0.41 0.40 0.41 0.41 0.40 0.42 0.42 0.43 0.46 0.47 0.49 0.50 0.50 0.46 0.48 0.53 0.57 0.56 0.55 0.56 0.57 0.57 0.56 0.56 0.56 0.57 0.58 0.59 0.60 0.58 0.57 0.54 0.54
0.28 0.25 0.24 0.19 0.18 0.21 0.22 0.25 0.42 0.42 0.42 0.42 0.42 0.42 0.43 0.44 0.43 0.43 0.43 0.43 0.41 0.38 0.39 0.39 0.41 0.45 0.48 0.51 0.52 0.49 0.49 0.49 0.50 0.52 0.54 0.56 0.54 0.57 0.57 0.57 0.56 0.56 0.57 0.59 0.59 0.59 0.59 0.57 0.54
Wind_Speed
10 10 11 9 8 7 10 10 9 8 7 7 6 4 5 5 5 5 5 7 8 8 8 8 7 6 5 5 5 5 5 5 6 6 7 7 8 8 9 10 10 11 12 12 12 13 14 14 14
10 9 8 9 8 9 11 10 8 9 8 7 5 6 6 7 7 6 7 9 9 9 9 8 7 7 6 6 6 5 5 6 6 6 7 8 8 9 9 9 10 10 11 12 12 13 14 15 16
9 8 7 7 8 10 10 10 10 9 9 8 7 6 7 7 7 9 8 11 10 10 10 9 8 7 7 6 6 6 6 6 6 7 7 8 8 9 9 9 10 10 11 11 12 14 15 16 17
7 7 7 6 10 11 10 10 11 8 9 8 8 7 8 10 8 10 12 12 10 11 11 10 8 8 7 6 6 6 6 6 7 7 8 8 8 8 8 9 9 10 10 12 13 15 17 17 18
5 5 5 7 9 10 9 8 9 9 9 9 9 9 9 8 8 12 13 12 12 12 11 10 9 8 8 7 6 6 6 6 7 7 7 8 8 8 8 8 9 10 11 13 14 16 16 17 17
3 5 5 7 9 10 11 11 10 9 9 9 7 8 9 9 12 13 14 13 12 12 11 10 10 9 8 8 7 6 6 6 7 7 7 8 8 8 8 9 10 11 12 14 15 16 16 16 16
3 4 6 7 9 10 10 9 10 10 10 10 9 7 9 10 13 14 14 14 13 13 12 11 10 10 9 8 8 7 7 7 7 7 8 8 8 8 8 9 11 12 13 14 15 15 15 14 14
3 3 5 6 7 9 7 8 9 10 11 9 9 9 9 13 14 14 15 14 14 13 12 12 11 11 10 9 8 8 8 8 8 8 8 9 9 9 10 11 11 12 13 14 14 13 13 13 12
3 3 5 5 6 8 8 9 9 10 10 10 10 9 9 13 15 15 15 14 14 14 13 13 12 12 11 10 9 9 9 8 9 9 9 9 10 10 11 11 12 12 13 13 13 13 12 11 11
3 4 7 7 7 9 10 10 11 10 10 10 10 9 10 13 15 16 16 16 15 15 14 13 13 13 12 11 10 10 10 10 10 10 10 11 11 11 11 12 12 12 13 13 12 12 11 10 9
4 6 7 9 10 11 11 11 12 10 12 13 13 11 12 12 14 15 16 16 16 15 15 15 14 13 13 12 11 11 11 11 11 11 11 12 12 12 12 13 12 12 12 12 11 11 10 9 9
5 8 8 9 9 10 11 12 13 13 13 11 13 14 14 13 14 15 16 16 16 16 16 16 15 14 13 13 12 12 12 12 12 13 13 13 12 13 13 13 13 12 12 11 11 10 10 9 9
5 6 8 9 11 12 11 12 13 15 16 13 13 15 15 15 14 15 15 16 16 16 17 17 16 15 14 13 13 13 12 13 13 14 14 14 13 14 13 13 13 12 12 12 11 11 10 10 9
6 6 8 8 10 11 10 9 8 13 15 13 15 17 17 17 16 14 14 16 17 17 17 18 18 17 15 14 14 13 13 14 14 14 15 15 15 14 14 13 13 12 12 12 11 11 10 10 10
6 7 7 5 5 5 4 7 9 11 11 14 16 17 18 18 16 16 16 16 18 18 18 19 19 18 16 15 15 14 14 14 14 15 15 15 16 15 14 13 13 13 13 13 12 11 11 11 10
6 5 6 6 4 4 2 6 7 7 11 13 14 18 19 20 19 18 17 17 18 18 19 19 19 19 18 17 16 15 15 15 15 15 15 16 15 16 15 14 14 14 14 14 13 12 12 11 11
5 5 6 8 5 3 2 6 7 8 10 15 15 15 19 20 20 19 19 18 18 19 20 20 20 19 18 17 16 16 15 15 15 15 16 16 16 16 16 15 15 15 15 15 14 14 13 13 12
5 6 6 6 6 3 5 9 10 9 7 12 16 17 17 19 21 21 21 20 20 20 20 21 21 20 19 18 17 16 16 16 16 16 16 16 16 16 16 16 16 16 16 16 16 15 15 14 13
6 6 7 6 5 6 6 7 5 5 5 6 10 17 19 19 19 21 21 21 20 21 21 22 22 21 20 19 18 18 17 16 16 16 17 17 17 17 17 17 17 17 17 17 17 17 16 16 15
7 7 8 7 5 5 4 2 3 5 5 6 5 5 11 14 14 16 18 19 21 22 22 22 22 22 21 21 19 18 18 18 17 17 17 18 18 18 18 18 17 17 17 18 18 18 17 16 16
6 6 6 6 8 4 3 4 5 4 6 7 5 2 5 8 11 13 16 19 20 21 22 22 23 22 22 21 20 19 18 18 18 18 18 18 18 19 19 19 18 18 17 17 18 18 18 17 16
7 5 5 6 6 6 5 6 5 5 5 6 6 3 3 6 7 8 10 14 19 22 23 22 22 22 22 22 21 21 20 20 20 19 19 19 19 20 20 21 20 19 18 18 18 18 19 18 18
9 8 9 7 6 7 7 3 7 4 3 5 6 5 4 3 5 7 8 10 15 21 23 23 23 22 22 23 23 22 22 21 21 20 20 20 20 21 21 22 23 22 21 20 20 20 20 20 19
10 9 8 6 5 6 6 4 7 5 3 1 3 5 5 4 4 4 5 7 9 15 22 24 24 24 23 23 23 23 24 23 23 22 22 22 22 22 22 24 25 25 24 24 23 23 23 22 22
8 8 9 8 7 7 5 4 7 5 3 2 1 4 5 5 6 5 5 4 6 8 16 22 25 25 25 24 24 25 25 25 25 25 24 24 23 23 24 25 27 27 28 27 27 26 26 25 25
11 9 8 10 8 8 7 6 6 5 3 2 1 1 3 5 6 6 6 5 4 2 6 12 19 24 26 27 27 27 27 27 27 27 27 27 26 26 26 26 28 29 30 30 30 30 30 29 28
12 11 11 10 11 9 9 7 5 7 4 3 3 3 3 4 5 6 6 6 5 4 4 7 10 15 21 25 28 29 29 30 29 30 29 29 29 29 29 29 30 31 32 33 33 33 33 32 32
14 13 12 11 11 11 10 9 10 11 8 6 5 5 5 5 6 6 7 7 6 6 7 8 9 11 15 18 21 26 29 31 31 32 32 31 31 31 31 31 32 33 35 35 36 36 36 36 35
14 14 13 13 12 12 10 12 12 14 11 9 9 8 7 7 7 8 8 9 9 9 9 10 11 13 14 16 18 21 25 28 30 31 32 33 33 33 34 34 35 36 37 38 38 39 38 39 38
16 15 14 13 15 14 13 14 12 12 12 12 11 11 10 10 9 10 11 12 12 12 12 13 13 14 15 17 18 18 18 22 27 30 32 33 33 34 35 35 36 37 38 40 41 41 41 41 41
Wind_Direction
278 269 254 250 251 252 253 253 242 239 256 263 264 248 228 238 236 239 213 193 177 177 173 168 167 165 158 150 142 143 143 137 133 131 127 119 115 111 111 108 105 103 102 103 103 105 110 110 110
277 267 249 241 241 250 256 250 235 246 247 250 247 250 255 244 242 227 196 189 182 178 173 166 160 158 155 152 151 141 141 142 139 135 133 130 122 118 116 113 111 109 107 107 107 108 112 112 109
273 256 239 234 235 236 245 243 243 243 246 252 250 252 242 236 243 210 205 185 181 178 176 173 167 162 158 154 150 148 141 143 143 141 137 133 132 126 121 118 116 115 114 112 112 113 115 114 112
261 248 242 234 239 244 255 240 242 239 251 256 242 248 250 244 218 209 188 186 183 180 178 178 176 172 168 161 154 148 145 146 146 147 145 142 136 135 131 129 125 123 120 119 119 118 118 117 115
256 238 236 241 242 249 268 234 231 245 248 247 243 242 250 229 221 192 188 188 186 184 183 184 183 181 178 174 168 164 160 158 155 153 153 153 149 144 141 138 134 131 128 126 124 123 122 121 119
253 232 237 243 248 259 269 236 242 250 249 240 247 241 239 227 197 192 191 189 189 187 189 189 189 187 186 185 184 181 176 172 169 169 167 163 158 154 150 145 140 138 134 131 129 127 125 125 123
234 237 232 243 252 274 268 233 246 247 246 246 224 238 238 215 201 194 193 192 191 190 192 194 192 192 192 193 191 188 188 186 182 177 174 171 167 163 156 152 148 143 140 137 135 132 131 129 127
243 231 243 243 265 268 272 246 251 248 253 231 227 230 231 216 200 194 194 194 195 196 197 199 199 200 200 200 202 201 196 192 189 186 183 180 175 169 162 158 153 150 147 145 142 139 137 133 131
252 244 242 250 287 272 272 259 266 258 238 242 235 226 233 199 197 194 196 198 199 203 204 204 204 205 206 206 204 205 201 199 197 193 190 185 179 172 169 164 160 157 155 153 150 147 145 140 138
259 238 241 248 274 272 273 270 262 252 242 239 236 235 206 195 198 199 200 203 205 206 207 208 207 206 206 209 209 208 207 205 201 197 192 187 182 178 174 169 167 165 163 161 158 156 154 152 150
266 245 254 267 273 266 277 272 262 243 237 232 226 217 201 202 202 203 205 206 207 208 211 210 209 207 209 212 213 212 210 207 204 200 195 189 187 184 181 177 173 172 171 170 169 167 165 164 160
294 268 261 274 281 272 270 268 260 245 238 232 223 212 206 206 206 206 208 208 209 211 212 210 210 210 212 215 216 216 214 210 207 202 196 193 190 188 183 182 181 179 179 179 181 179 177 175 172
296 286 282 276 282 280 272 267 252 245 240 234 220 213 213 212 214 215 215 214 213 215 214 212 212 214 215 217 217 216 215 211 207 203 199 196 193 189 189 190 189 190 189 189 188 187 186 183 181
321 305 293 292 288 281 272 272 254 242 236 228 219 218 218 217 218 219 219 219 219 218 217 215 215 216 217 218 218 216 214 211 207 205 203 202 198 196 197 196 196 197 197 196 195 193 192 191 190
328 326 317 303 302 287 278 284 254 248 239 236 227 225 224 223 222 223 226 224 222 222 218 216 216 217 218 219 217 215 213 210 208 206 205 203 202 203 201 202 204 205 204 203 202 201 200 198 197
350 4 355 331 341 305 250 281 286 264 237 239 234 231 226 227 228 231 231 229 226 223 220 217 216 216 218 218 216 214 213 211 208 208 208 207 207 208 209 211 213 212 211 209 209 208 208 207 206
360 340 334 329 334 309 271 288 292 289 256 250 242 232 228 230 232 235 235 233 229 226 221 218 217 217 217 216 216 216 214 213 212 212 212 211 213 214 215 218 219 217 216 215 216 215 215 214 213
307 324 322 309 322 313 290 286 306 302 277 259 247 241 231 232 234 236 236 235 230 227 222 219 217 218 218 217 218 217 218 218 217 216 216 217 219 220 221 224 223 221 221 221 221 220 219 218 217
299 295 302 301 303 322 305 310 325 335 349 319 274 244 236 235 241 239 236 232 228 225 222 219 217 219 218 217 217 219 220 220 221 221 222 223 225 226 227 227 227 226 225 225 223 222 222 221 219
295 303 302 299 304 317 333 336 319 358 343 333 313 264 232 234 244 242 234 231 226 223 222 219 219 219 220 220 222 223 224 225 226 227 227 229 230 231 231 230 229 228 227 226 224 222 221 219 214
310 300 298 289 305 298 276 320 322 326 348 355 354 289 229 237 246 251 242 235 228 223 220 219 219 221 221 223 223 225 227 228 229 231 233 234 234 234 234 231 229 228 227 225 223 220 216 214 213
305 301 309 308 314 278 278 266 291 310 350 0 3 355 268 254 258 258 253 237 229 226 223 221 221 222 223 224 225 227 229 231 233 235 237 238 237 237 235 232 229 228 227 224 221 218 217 215 215
282 296 291 286 292 300 277 248 262 283 331 347 358 17 6 306 281 276 268 251 240 226 224 224 225 225 226 227 230 230 233 236 238 239 240 241 241 239 237 233 231 230 229 227 224 221 220 220 222
290 297 307 294 284 293 261 236 256 248 236 319 1 23 17 7 359 328 292 262 256 236 227 226 226 228 230 231 233 234 236 238 239 241 242 243 243 242 240 236 234 233 232 230 228 227 227 227 228
290 297 288 286 286 261 257 268 262 229 222 212 7 24 24 23 20 12 360 331 279 251 234 230 230 232 234 235 236 237 239 240 241 242 243 244 245 244 243 240 237 236 235 233 233 232 232 232 233
275 267 261 272 264 268 267 245 247 223 202 231 268 310 16 20 17 15 9 4 354 287 247 235 235 237 239 240 242 242 243 244 244 245 246 246 247 247 247 244 241 239 238 237 236 236 236 236 238
274 268 262 264 269 266 258 252 244 240 243 258 276 296 313 325 337 350 355 356 345 314 289 259 250 246 245 246 247 246 247 247 247 248 249 249 250 250 250 247 245 242 241 239 239 238 238 239 240
262 265 266 266 259 256 259 241 253 242 237 248 266 278 286 296 313 320 329 330 323 312 294 283 269 260 257 255 254 251 251 251 250 250 250 250 251 251 251 250 248 246 243 242 241 240 241 241 242
271 266 260 255 250 248 245 254 268 239 237 239 253 265 275 287 295 302 309 313 311 306 300 291 281 275 272 268 265 262 256 253 252 252 252 252 252 252 252 252 250 248 246 244 243 243 242 242 243
265 262 258 254 258 254 248 252 255 248 245 247 253 262 269 278 288 295 299 302 303 302 297 292 288 283 279 274 270 269 267 261 256 255 254 254 253 253 254 254 252 251 249 246 245 244 244 244 244